Flag for U.S.A. Weather past 2 weeks in Aurora, Illinois, U.S.A.

Now
64 °F

Sunny.


Feels Like: 64 °F
Forecast: 52 / 71 °F
Wind: 16 mph from East

Location: Dupage Airport

Current Time: Apr 18, 2015 at 4:35:20 PM

Latest Report: Apr 18, 2015 at 3:52 PM


Visibility: 10 mi

Pressure: 30.01 "Hg

Humidity: 41%

Dew point: 40 °F

Location of AuroraLocation

Historic Weather in Aurora — Graph

°F

Aurora temperature yesterday

Maximum temperature yesterday: 77 °F (at 3:52 PM)
Minimum temperature yesterday: 44 °F (at 5:52 AM)
Average temperature yesterday: 62 °F

Past Weeks' High & Low Weather Summary

 TemperatureHumidityPressure
High77 °F (Apr 17, 3:52 PM)100% (Apr 9, 5:52 AM)30.29 "Hg (Apr 9, 5:52 AM)
Low26 °F (Apr 4, 5:52 AM)16% (Apr 14, 2:52 PM)29.42 "Hg (Apr 9, 8:52 PM)
Average51 °F62%30.03 "Hg
* Reported Apr 3 2:52 PM — Apr 18 2:52 PM, Aurora, Weather by CustomWeather, © 2015

Note: Actual official high and low records may vary slightly from our data, if they occured in-between our weather recording intervals... More about our weather records

Advertising

Aurora weather history for previous 24 hours

 ConditionsComfort  
Time TempWeatherWind HumidityBarometerVisibility
2:52 PM
Sat, Apr 18
64 °FSunny.15 mph41%30.03 "Hg10 mi
1:52 PM65 °FSunny.14 mph42%30.05 "Hg10 mi
12:52 PM66 °FSunny.15 mph39%30.06 "Hg10 mi
11:52 AM64 °FSunny.16 mph40%30.07 "Hg10 mi
10:52 AM62 °FSunny.16 mph41%30.08 "Hg10 mi
9:52 AM61 °FSunny.16 mph48%30.07 "Hg10 mi
8:52 AM65 °FSunny.15 mph49%30.03 "Hg10 mi
7:52 AM61 °FSunny.6 mph72%30.03 "Hg7 mi
6:52 AM51 °FPassing clouds.3 mph83%30.03 "Hg7 mi
5:52 AM52 °FClear.3 mph83%30.02 "Hg8 mi
4:52 AM52 °FPassing clouds.3 mph80%30.01 "Hg9 mi
3:52 AM55 °FPassing clouds.No wind80%30.01 "Hg10 mi
2:52 AM54 °FPassing clouds.No wind83%30.00 "Hg10 mi
1:52 AM57 °FClear.No wind72%30.00 "Hg10 mi
12:52 AM59 °FMostly cloudy.No wind69%30.00 "Hg10 mi
11:52 PM
Fri, Apr 17
59 °FPassing clouds.No wind69%29.99 "Hg10 mi
10:52 PM59 °FPassing clouds.3 mph72%29.99 "Hg10 mi
9:52 PM58 °FPassing clouds.No wind78%30.01 "Hg10 mi
8:52 PM63 °FClear.No wind60%29.99 "Hg10 mi
7:52 PM67 °FScattered clouds.No wind51%29.98 "Hg10 mi
6:52 PM72 °FOvercast.6 mph43%29.98 "Hg10 mi
5:52 PM74 °FPartly sunny.7 mph38%29.98 "Hg9 mi
4:52 PM75 °FMostly cloudy.13 mph37%29.99 "Hg10 mi
Weather by CustomWeather, © 2015

See weather overviewHow to use our weather pages